RH
28 38 24 17 20 14 12 10 8 10 9 11 11 12 13 14 20 32 23 24 30 36 53 52 51 96 77 72 67 58 64 68 73 71 62 63 69 65 67 76 89 93 92 93 74 62 74 82 80
20 15 17 12 11 14 11 8 10 12 12 13 13 12 10 20 22 26 27 28 32 38 52 62 50 91 83 74 63 60 64 74 72 70 63 62 66 66 67 73 88 98 94 96 82 56 69 72 68
18 12 11 7 7 27 10 8 8 11 11 12 12 12 13 22 23 24 28 32 34 37 45 64 47 79 81 72 63 61 65 68 67 68 67 60 63 67 69 69 77 87 91 93 94 87 70 71 59
8 7 6 6 7 10 8 8 8 9 11 11 12 15 25 27 25 26 32 34 36 36 40 50 44 61 71 72 66 62 63 65 62 66 68 70 69 68 65 67 71 74 71 70 48 52 55 52 43
6 5 6 6 7 9 7 6 6 7 9 12 12 16 27 30 29 29 33 34 37 38 49 53 48 56 70 70 69 69 65 62 59 61 65 67 69 67 64 62 67 72 69 42 41 44 46 47 48
5 4 5 6 7 8 8 6 6 6 7 12 14 17 31 31 25 29 33 36 39 42 54 66 49 60 68 73 71 70 66 60 60 60 62 61 59 63 66 64 62 62 49 41 47 52 52 49 49
5 4 4 4 6 7 9 6 6 6 6 16 15 24 26 28 27 27 33 39 42 46 56 63 72 67 74 78 77 70 62 61 62 62 59 54 44 52 63 61 63 59 47 41 48 45 51 57 62
5 4 4 4 4 8 8 6 6 5 14 12 12 18 22 34 32 28 32 42 48 54 61 66 66 73 81 86 71 67 63 61 60 60 55 50 50 57 60 60 58 53 44 45 46 52 60 61 62
4 4 3 4 4 9 6 6 6 5 8 7 8 12 21 35 36 30 31 39 48 57 62 68 67 68 72 73 81 72 71 67 65 61 57 56 70 74 74 69 62 51 47 48 52 55 65 66 64
5 4 6 8 10 10 7 6 6 5 8 9 9 8 17 29 36 34 30 32 41 51 59 66 68 68 69 61 72 82 82 83 84 80 81 69 59 62 61 64 73 48 47 49 60 65 68 67 62
6 7 10 10 12 7 6 6 7 7 10 9 10 9 9 21 28 33 33 28 32 40 52 59 67 67 66 55 62 65 64 66 71 71 76 62 52 57 58 63 76 71 50 68 65 70 73 67 55
11 12 10 10 8 6 6 6 9 9 9 8 8 8 7 8 15 24 29 30 28 31 42 52 58 65 66 54 54 56 54 57 57 60 68 62 53 54 53 51 58 60 56 55 59 58 62 59 54
9 10 8 6 8 6 5 5 9 8 7 6 6 7 7 7 7 14 29 32 31 29 33 46 52 61 64 62 49 51 48 51 49 53 60 63 54 54 53 47 48 47 46 49 46 48 49 52 50
11 8 6 6 7 6 6 6 7 8 7 6 6 6 7 7 6 9 12 26 35 33 33 40 49 57 63 64 53 51 50 47 50 48 54 65 57 54 52 48 47 43 44 44 44 42 42 45 45
8 8 6 8 7 6 7 9 10 8 8 8 7 7 8 9 11 15 15 13 25 36 36 38 49 54 63 64 63 56 51 53 50 50 50 58 64 56 54 51 49 46 45 46 45 46 46 44 47
6 5 7 9 7 7 6 13 11 10 11 11 12 12 14 17 21 24 26 23 19 29 36 39 43 52 63 63 61 59 55 53 53 51 49 57 62 62 58 55 50 47 45 45 48 47 45 46 45
6 4 7 10 8 7 7 13 16 14 15 17 18 18 19 21 23 26 29 31 32 38 42 41 43 49 55 62 62 59 57 57 53 51 51 51 61 64 63 57 51 50 49 44 47 48 46 42 44
5 7 7 9 9 10 15 20 19 17 19 21 20 21 22 23 24 28 29 33 40 42 43 47 52 48 54 56 58 57 54 55 56 52 50 51 55 64 65 59 55 51 49 45 45 47 43 44 39
5 6 10 12 12 16 19 21 22 20 20 22 22 22 23 24 24 26 29 31 33 41 44 46 50 55 56 54 57 56 54 51 53 55 52 52 55 58 67 64 58 56 49 46 45 47 48 44 44
6 10 13 13 12 15 19 23 22 22 23 23 23 24 24 24 25 26 27 29 33 36 40 45 50 55 60 61 61 55 54 51 48 50 55 56 56 60 63 68 58 56 54 51 51 50 49 48 46
10 11 13 14 13 15 18 22 22 21 21 23 24 24 24 27 27 27 27 28 30 35 37 38 45 54 64 71 72 73 60 54 54 48 50 57 59 61 65 64 68 56 54 54 57 57 56 50 46
17 14 14 14 14 16 12 24 23 20 22 24 26 27 28 28 27 27 28 29 30 34 38 35 37 41 51 66 73 82 89 79 49 50 49 50 54 58 64 68 67 68 57 55 54 60 59 60 51
18 16 16 16 15 14 14 14 24 21 24 26 26 28 29 30 30 29 30 30 31 34 38 41 41 44 46 50 56 70 83 96 94 60 55 54 53 52 59 64 69 69 70 60 58 53 60 59 61
16 19 18 16 16 21 16 16 24 23 26 27 26 26 28 27 26 25 28 29 33 38 40 36 35 44 51 53 58 55 69 84 98 95 94 69 59 54 56 60 65 71 72 72 65 64 57 63 59
18 18 20 20 20 19 18 19 28 26 27 27 27 26 25 24 24 23 25 26 30 35 43 44 42 37 43 53 58 63 62 71 81 95 91 92 94 79 60 56 63 67 72 74 73 69 69 64 64
18 17 20 19 13 16 20 26 28 24 25 24 23 22 22 22 23 23 24 26 27 30 37 46 46 46 45 45 56 62 63 68 69 77 80 81 87 89 91 91 69 63 69 72 77 74 71 69 69
18 24 23 32 28 19 20 28 28 24 27 27 25 24 24 24 23 23 23 25 27 29 32 41 41 40 47 51 50 60 67 63 75 65 67 70 69 79 76 86 94 86 68 71 75 76 74 70 70
25 19 26 26 28 24 19 27 28 29 29 28 28 26 25 24 24 23 23 25 27 30 31 33 38 40 43 51 56 61 63 65 71 77 74 66 54 68 63 72 79 97 93 85 74 76 74 74 72
25 23 28 25 32 22 18 24 24 27 27 29 26 26 26 26 25 23 24 26 28 30 30 31 34 35 41 44 53 67 75 63 71 75 78 78 64 62 71 70 71 78 90 93 99 82 80 76 74
23 20 23 27 33 23 28 31 25 28 26 28 25 26 25 24 24 24 25 25 27 29 30 30 31 34 37 39 43 52 73 76 78 71 80 80 76 73 74 72 69 72 80 94 99 100 93 90 84
Wind_Speed
12 6 10 11 6 9 5 12 3 11 13 9 9 15 9 18 15 6 14 12 19 23 22 22 19 18 25 25 23 22 22 21 19 19 18 20 21 18 17 16 16 16 14 15 16 17 17 16 16
9 10 11 7 9 4 10 10 10 12 10 6 4 4 12 14 14 12 14 18 22 23 21 20 20 19 23 25 24 23 23 21 20 20 19 19 19 18 16 15 15 14 14 15 16 17 17 16 15
8 10 10 6 15 7 12 12 8 8 5 5 2 4 8 8 10 9 15 23 24 22 21 20 21 20 22 25 25 24 23 22 20 20 19 19 19 17 15 14 13 13 14 15 15 17 18 17 15
7 7 6 10 16 12 14 11 10 3 6 5 8 11 10 11 3 9 22 22 22 22 20 19 22 21 23 25 25 24 23 21 20 20 19 18 18 17 16 13 13 14 15 16 17 17 17 16 14
12 8 11 13 3 8 13 10 11 9 7 8 9 14 15 12 10 19 21 21 20 20 19 20 21 20 23 24 24 23 22 20 19 19 18 18 17 16 15 15 15 16 16 16 17 17 16 14 13
8 5 11 13 9 7 13 9 10 10 12 14 11 13 9 6 13 17 20 20 19 19 16 20 22 20 21 23 23 22 21 20 20 19 18 17 17 16 16 16 16 16 16 16 17 17 16 14 12
12 9 15 14 15 7 11 7 11 10 14 11 7 16 7 10 10 14 17 19 19 17 16 18 18 19 20 21 21 21 20 20 19 18 17 17 16 17 17 16 16 17 16 17 17 16 13 12 9
7 7 16 7 6 12 5 3 8 9 14 20 18 11 12 11 8 13 15 16 16 17 16 17 18 17 16 16 19 19 19 19 18 18 17 17 16 16 17 17 16 16 16 17 17 17 13 11 8
7 9 10 5 3 10 5 5 9 2 16 17 18 13 8 7 7 11 14 15 16 16 17 17 18 19 17 15 16 19 18 17 17 17 17 17 13 14 14 14 15 16 17 17 18 17 13 11 10
7 10 9 12 9 6 5 7 8 3 13 14 15 16 13 6 5 8 12 14 16 17 19 19 20 19 19 17 16 17 15 15 15 15 16 15 14 14 14 15 15 17 17 18 18 17 15 13 10
3 6 10 11 5 5 4 11 13 11 13 13 14 14 16 8 4 5 10 13 17 18 19 20 21 21 20 19 17 19 18 17 17 17 16 16 16 15 15 15 16 16 19 16 19 17 15 14 13
8 4 3 6 5 6 5 5 12 14 10 9 10 10 11 11 11 2 7 11 14 17 18 19 20 21 22 20 20 19 20 19 19 20 19 19 18 17 17 17 16 17 17 18 18 18 17 17 16
4 10 8 7 3 10 3 5 11 13 11 9 7 7 10 10 11 14 7 7 11 15 17 18 20 22 21 21 20 20 21 20 20 20 22 21 20 18 18 18 17 19 19 19 20 20 19 19 19
6 9 9 6 6 7 4 10 5 13 9 6 7 9 10 10 12 13 17 7 8 10 15 17 19 21 22 23 21 20 21 21 22 21 22 24 22 21 20 20 20 20 20 20 21 20 20 19 19
10 14 8 10 5 4 1 12 12 10 11 10 10 13 13 17 26 24 22 18 7 8 13 15 17 19 21 22 23 21 21 21 22 23 23 23 25 22 21 22 21 22 21 20 20 21 21 20 20
11 11 11 9 3 3 7 14 12 12 11 14 15 14 15 20 23 24 25 24 23 30 7 14 16 18 20 23 22 23 22 22 23 22 23 26 26 26 23 23 23 23 22 22 23 22 22 22 22
11 10 9 8 6 4 6 12 11 13 14 16 16 17 17 18 23 25 27 26 25 26 25 11 13 17 18 21 24 24 24 24 24 24 24 25 27 28 28 25 25 23 24 24 22 24 24 23 23
12 10 6 9 5 16 19 17 14 14 15 16 16 17 18 20 22 26 29 32 32 30 28 28 25 9 16 20 23 25 26 26 26 27 27 27 28 28 30 30 26 25 26 26 26 25 24 25 23
11 14 13 12 7 15 16 16 15 14 15 16 16 16 17 18 23 26 28 32 35 37 36 33 29 28 24 16 21 23 27 27 27 29 29 29 29 29 31 31 31 29 28 28 27 26 25 23 23
12 17 14 10 12 13 16 16 14 14 13 15 15 15 16 16 18 24 28 30 33 34 34 35 33 31 31 29 26 23 25 26 29 28 28 30 29 31 31 34 31 31 31 29 28 25 25 25 24
9 9 12 16 12 14 17 13 12 13 11 11 13 13 14 15 17 18 25 30 32 32 33 34 36 34 31 36 29 30 23 27 28 28 28 29 33 34 34 32 35 32 32 31 32 30 27 24 23
10 6 8 13 17 8 12 7 6 8 9 11 11 12 12 14 15 17 21 25 28 29 29 30 33 35 37 34 35 30 29 29 26 27 29 28 30 35 35 34 34 35 33 34 33 34 33 29 25
9 7 7 10 11 10 9 8 10 3 7 8 9 12 12 13 14 15 20 22 24 27 26 27 27 31 34 35 38 35 38 35 35 30 27 27 27 29 34 35 35 36 36 35 34 32 33 34 31
11 10 8 5 6 7 3 9 8 7 4 5 6 10 12 13 13 17 17 19 22 23 26 28 29 29 31 32 34 38 38 39 39 42 35 25 23 28 31 33 36 37 38 37 37 35 35 34 34
9 13 6 8 6 1 5 6 10 8 4 5 6 9 10 12 12 13 17 20 21 24 24 25 28 30 30 31 31 31 32 30 32 35 34 33 34 28 24 30 34 37 38 39 37 37 37 39 36
10 11 5 8 6 9 5 6 7 8 6 4 5 7 8 10 11 13 17 19 21 22 23 25 26 26 29 30 31 26 30 29 28 30 36 33 32 33 34 25 26 34 38 38 40 39 39 38 40
7 6 6 1 5 3 9 9 7 9 9 5 3 4 6 8 10 11 14 16 18 20 22 23 25 26 26 27 27 29 27 30 28 32 32 35 35 35 37 35 26 22 34 37 39 40 41 40 40
7 6 4 3 5 6 8 12 6 15 11 7 5 1 4 6 8 9 13 15 18 19 20 21 22 25 26 27 26 26 28 30 29 28 29 33 39 36 39 38 37 26 21 31 37 39 40 41 40
5 7 5 2 3 3 5 5 12 13 7 4 2 0 3 6 7 8 10 13 16 18 20 22 22 24 24 25 26 25 27 31 30 28 29 28 34 36 35 32 35 35 32 28 32 38 37 39 39
6 4 8 5 9 3 5 6 8 10 7 3 2 2 4 5 7 10 13 14 16 19 21 23 23 23 24 25 24 25 26 28 28 31 32 29 30 29 32 33 32 31 33 35 39 23 36 37 37
Wind_Direction
321 293 278 271 250 218 91 87 45 43 75 44 46 21 24 37 8 43 133 128 137 140 150 157 168 158 169 174 172 169 166 163 161 159 154 154 154 149 143 138 130 131 129 128 129 128 128 126 125
289 271 257 274 257 278 81 55 58 54 60 64 76 304 35 66 52 113 117 142 145 144 151 156 168 161 169 174 173 170 168 166 165 163 158 159 161 158 153 147 142 135 134 133 132 132 132 130 129
285 261 272 246 261 42 85 56 40 82 73 12 19 56 28 34 56 114 130 142 145 147 153 163 166 164 169 174 175 172 172 171 170 168 164 162 165 166 162 156 152 149 145 140 138 140 140 139 136
258 217 241 251 250 69 61 51 20 61 119 43 349 83 98 30 69 107 140 146 146 148 154 171 167 169 172 176 177 175 175 174 173 173 172 171 170 171 168 165 162 158 154 150 150 148 145 142 138
239 263 262 236 279 79 70 38 32 45 35 17 339 79 70 57 84 129 140 147 148 150 149 167 171 172 175 179 181 180 177 178 178 179 179 179 179 176 173 171 167 162 163 162 157 151 147 148 146
249 260 249 235 155 111 73 12 29 19 32 29 35 79 67 87 114 137 144 148 152 153 154 163 173 177 179 183 184 184 183 184 182 183 183 186 187 185 181 176 172 172 171 168 162 157 157 156 152
251 259 256 276 116 153 38 338 26 4 31 36 339 69 94 92 121 144 149 150 154 157 157 164 168 177 183 186 189 189 189 188 187 187 188 189 188 185 185 182 181 179 177 173 169 164 161 159 154
278 284 268 251 169 91 40 58 16 20 61 53 23 33 28 79 139 148 152 154 158 161 164 168 170 175 181 189 196 194 193 192 191 191 191 189 189 188 188 189 189 188 184 181 178 175 174 178 182
255 254 244 151 318 102 68 356 32 267 82 36 42 30 54 81 142 158 157 164 164 172 174 175 177 177 180 185 197 197 197 198 197 194 194 193 187 194 203 192 210 194 192 191 188 190 195 201 210
241 245 36 51 44 57 59 32 1 12 38 31 27 22 41 94 148 184 188 182 185 184 184 184 183 185 183 187 192 194 202 202 199 198 199 193 197 199 200 203 214 207 201 199 200 204 211 217 226
187 319 114 71 40 338 4 65 34 2 48 21 16 17 18 52 137 214 225 205 196 195 194 193 190 187 190 192 192 194 200 204 209 208 205 203 203 204 204 205 211 208 207 206 211 217 221 226 231
139 49 18 71 53 18 38 66 67 44 25 357 13 9 22 25 12 340 238 236 206 199 199 201 200 198 196 198 197 199 202 204 208 211 209 212 212 209 209 211 208 205 209 209 213 218 223 229 234
164 121 104 81 115 23 315 63 95 32 2 351 6 21 22 12 25 19 356 292 242 210 206 207 208 206 205 207 204 205 207 207 212 211 212 214 216 216 216 217 213 211 212 213 217 221 223 227 233
128 137 100 53 103 47 4 83 5 15 3 17 26 32 35 21 21 36 15 358 291 242 214 211 214 213 213 211 219 213 213 211 213 217 217 215 221 221 219 221 220 219 218 219 221 223 227 230 233
148 141 112 41 87 88 229 94 39 15 19 33 32 38 42 33 29 24 11 0 354 261 242 221 222 221 221 223 220 220 222 223 218 219 216 218 221 226 224 224 224 225 224 226 225 229 230 234 235
180 189 187 61 117 195 242 77 40 36 40 51 49 49 48 43 37 30 26 17 3 11 274 236 228 228 228 232 229 230 229 229 232 228 225 219 221 224 225 229 228 227 228 226 229 228 231 232 237
197 195 178 102 38 159 175 101 55 52 57 56 57 55 52 44 44 37 35 26 19 15 7 345 237 238 239 235 238 236 237 234 235 237 233 228 223 222 224 229 232 228 230 230 227 231 231 234 235
179 135 151 114 93 100 100 98 74 64 69 65 62 63 58 53 46 43 42 36 33 29 25 19 6 305 246 254 242 244 242 240 240 236 235 232 229 226 223 226 230 229 228 229 229 232 230 234 241
145 142 118 122 97 109 104 98 87 71 69 71 66 61 58 56 50 46 42 40 37 34 30 24 14 2 350 273 251 253 244 247 244 245 243 235 229 227 225 228 224 224 230 230 228 227 233 238 236
146 134 122 118 173 134 118 102 92 85 76 64 63 61 50 48 47 44 40 40 38 35 33 30 23 14 6 351 324 260 260 253 251 246 246 248 239 231 228 227 230 224 222 229 232 230 228 232 237
127 146 172 136 153 134 131 106 112 99 86 81 73 59 54 44 44 41 41 40 40 38 33 33 30 24 14 8 354 335 291 262 262 257 246 244 244 237 233 233 228 229 226 224 223 227 227 232 229
128 102 129 154 164 182 226 127 111 103 92 74 63 56 50 42 39 41 36 38 37 35 35 35 34 29 28 21 17 6 349 330 262 251 258 253 241 239 237 237 236 232 231 227 224 220 222 224 234
124 165 168 173 215 165 180 244 120 169 95 62 43 47 40 43 36 39 33 36 33 30 26 25 24 26 26 24 28 17 11 356 343 283 265 262 260 245 237 237 236 236 233 236 229 227 221 221 223
137 155 158 201 161 230 162 267 147 146 90 55 42 50 41 41 41 41 36 35 29 28 24 22 20 21 17 19 19 23 16 8 6 354 349 301 269 250 245 241 238 237 236 236 235 231 228 222 225
203 176 155 190 198 129 134 229 80 121 100 71 52 54 55 50 42 35 34 29 30 25 21 15 14 16 14 12 15 13 17 11 7 3 356 349 353 313 272 244 240 238 239 238 238 234 230 229 227
189 209 294 220 197 141 156 187 153 124 120 111 85 69 56 50 42 31 30 24 22 21 20 14 11 5 9 9 3 8 11 5 4 356 6 357 350 347 334 331 267 239 238 241 241 241 236 232 230
153 214 43 125 40 257 150 91 134 162 160 153 88 65 49 34 29 27 25 23 17 14 17 12 8 6 2 359 5 359 4 2 351 357 356 359 355 347 351 344 315 300 247 239 241 243 241 236 234
288 116 174 216 191 213 184 170 139 178 173 164 166 40 32 20 15 16 10 14 12 11 9 6 3 0 358 357 355 354 0 357 350 347 349 351 352 347 355 348 348 334 300 269 242 243 245 240 236
173 188 241 319 305 258 192 135 108 152 160 180 181 337 356 349 2 4 9 9 5 3 3 360 358 355 355 351 349 347 351 354 348 347 341 343 347 347 346 342 342 349 346 346 306 246 246 245 238
313 221 203 248 174 220 325 93 118 135 150 179 285 236 320 341 347 352 360 4 1 359 356 353 354 352 351 347 346 345 345 345 339 347 339 339 342 341 335 345 336 345 345 357 348 335 246 245 245